JHL44 LYTV-LOXZ

Flight info

Callsign JHL44
Flight time 1h 8m
Altitude 38000
Route NIK DCT NEPSI DCT LURID DCT KOPRY
Aircraft A320/M-SDE3FGHIRWY/LB1

Departure

Time 2026-05-09 16:58
Airport Tivat Airport (LYTV)

Arrival

Time 2026-05-09 18:06
Airport Hinterstoisser Air Base (LOXZ)
Time Latitude Longitude Altitude Speed Heading
2026-05-09 16:43 42.41154 18.71747 22 ft 0 kts 163°
2026-05-09 16:52 42.41150 18.71748 24 ft 2 kts 167°
2026-05-09 16:52 42.41129 18.71748 22 ft 5 kts 177°
2026-05-09 16:53 42.41092 18.71766 22 ft 7 kts 144°
2026-05-09 16:53 42.41058 18.71806 22 ft 6 kts 139°
2026-05-09 16:53 42.41029 18.71841 23 ft 5 kts 142°
2026-05-09 16:53 42.40994 18.71841 24 ft 6 kts 208°
2026-05-09 16:54 42.40948 18.71803 22 ft 10 kts 197°
2026-05-09 16:54 42.40875 18.71846 21 ft 14 kts 140°
2026-05-09 16:54 42.40784 18.71952 19 ft 20 kts 139°
2026-05-09 16:54 42.40664 18.72093 18 ft 26 kts 139°
2026-05-09 16:55 42.40518 18.72265 20 ft 30 kts 139°
2026-05-09 16:55 42.40354 18.72457 26 ft 31 kts 139°
2026-05-09 16:55 42.40189 18.72649 24 ft 31 kts 139°
2026-05-09 16:55 42.40024 18.72844 21 ft 32 kts 139°
2026-05-09 16:56 42.39872 18.73023 21 ft 28 kts 139°
2026-05-09 16:56 42.39744 18.73171 26 ft 17 kts 139°
2026-05-09 16:56 42.39661 18.73243 24 ft 14 kts 167°
2026-05-09 16:56 42.39617 18.73296 25 ft 6 kts 62°
2026-05-09 16:57 42.39632 18.73300 25 ft 2 kts 347°
2026-05-09 16:57 42.39637 18.73294 26 ft 0 kts 324°
2026-05-09 16:57 42.39658 18.73271 24 ft 18 kts 321°
2026-05-09 16:57 42.39911 18.72974 21 ft 77 kts 319°
2026-05-09 16:58 42.40453 18.72338 21 ft 128 kts 319°
2026-05-09 16:58 42.41215 18.71422 207 ft 153 kts 316°
2026-05-09 16:58 42.42002 18.70455 846 ft 154 kts 314°
2026-05-09 16:58 42.42507 18.69212 1465 ft 154 kts 279°
2026-05-09 16:59 42.42394 18.67790 2092 ft 158 kts 246°
2026-05-09 16:59 42.41688 18.66610 2627 ft 168 kts 219°
2026-05-09 16:59 42.40711 18.65672 3176 ft 177 kts 214°
2026-05-09 16:59 42.39644 18.64757 3740 ft 185 kts 213°
2026-05-09 17:00 42.38518 18.63810 4255 ft 196 kts 214°
2026-05-09 17:00 42.37340 18.62783 4763 ft 207 kts 214°
2026-05-09 17:00 42.36101 18.61661 5148 ft 228 kts 215°
2026-05-09 17:00 42.34760 18.60390 5970 ft 238 kts 217°
2026-05-09 17:01 42.33342 18.59221 6812 ft 246 kts 202°
2026-05-09 17:01 42.31676 18.58653 7779 ft 250 kts 184°
2026-05-09 17:01 42.29930 18.58778 8754 ft 255 kts 174°
2026-05-09 17:01 42.28151 18.59072 9749 ft 259 kts 172°
2026-05-09 17:02 42.26439 18.59835 10696 ft 263 kts 148°
2026-05-09 17:02 42.25112 18.61547 11554 ft 269 kts 121°
2026-05-09 17:02 42.24469 18.63945 12292 ft 279 kts 93°
2026-05-09 17:02 42.24722 18.66559 12966 ft 287 kts 69°
2026-05-09 17:03 42.25379 18.69126 13661 ft 297 kts 68°
2026-05-09 17:04 42.35289 18.81818 18240 ft 323 kts
2026-05-09 17:05 42.37514 18.82356 18951 ft 327 kts
2026-05-09 17:05 42.39776 18.82908 19482 ft 336 kts
2026-05-09 17:05 42.42098 18.83477 19751 ft 352 kts
2026-05-09 17:05 42.44557 18.84085 20018 ft 368 kts
2026-05-09 17:06 42.47130 18.84721 20211 ft 383 kts
2026-05-09 17:06 42.49806 18.85387 20375 ft 399 kts
2026-05-09 17:06 42.52584 18.86081 20656 ft 411 kts
2026-05-09 17:06 42.55406 18.86790 21165 ft 415 kts
2026-05-09 17:07 42.58255 18.87515 21747 ft 417 kts
2026-05-09 17:07 42.59178 18.87751 21943 ft 418 kts
2026-05-09 17:07 42.63948 18.88972 22920 ft 421 kts
2026-05-09 17:07 42.66827 18.89703 23510 ft 422 kts
2026-05-09 17:08 42.69720 18.90431 23986 ft 424 kts
2026-05-09 17:08 42.75565 18.91781 24774 ft 425 kts 359°
2026-05-09 17:08 42.78507 18.91828 25132 ft 422 kts 351°
2026-05-09 17:09 42.81397 18.91259 25483 ft 418 kts 342°
2026-05-09 17:09 42.84204 18.90379 25801 ft 420 kts 342°
2026-05-09 17:09 42.87058 18.89481 26100 ft 422 kts 342°
2026-05-09 17:09 42.89917 18.88579 26390 ft 423 kts 342°
2026-05-09 17:10 42.92792 18.87669 26632 ft 425 kts 342°
2026-05-09 17:10 42.95675 18.86758 26875 ft 426 kts 342°
2026-05-09 17:10 42.98570 18.85844 27100 ft 427 kts 342°
2026-05-09 17:10 43.01469 18.84930 27268 ft 429 kts 341°
2026-05-09 17:11 43.04379 18.84013 27510 ft 429 kts 341°
2026-05-09 17:11 43.07280 18.83097 27767 ft 428 kts 341°
2026-05-09 17:11 43.10182 18.82180 28020 ft 427 kts 341°
2026-05-09 17:11 43.13038 18.81279 28292 ft 427 kts 341°
2026-05-09 17:12 43.15942 18.80363 28565 ft 428 kts 341°
2026-05-09 17:12 43.18841 18.79444 28824 ft 428 kts 341°
2026-05-09 17:12 43.21740 18.78521 29090 ft 427 kts 340°
2026-05-09 17:12 43.24636 18.77598 29356 ft 427 kts 340°
2026-05-09 17:13 43.27528 18.76667 29634 ft 427 kts 339°
2026-05-09 17:13 43.30303 18.75348 30039 ft 419 kts 330°
2026-05-09 17:13 43.32854 18.73589 30474 ft 414 kts 327°
2026-05-09 17:13 43.35398 18.71769 30901 ft 412 kts 327°
2026-05-09 17:14 43.37935 18.69956 31336 ft 410 kts 327°
2026-05-09 17:14 43.40454 18.68157 31730 ft 407 kts 327°
2026-05-09 17:14 43.42966 18.66362 32092 ft 405 kts 326°
2026-05-09 17:14 43.45460 18.64575 32486 ft 404 kts 326°
2026-05-09 17:15 43.47945 18.62784 32932 ft 401 kts 326°
2026-05-09 17:15 43.50409 18.61009 33380 ft 399 kts 326°
2026-05-09 17:15 43.52831 18.59267 33781 ft 397 kts 326°
2026-05-09 17:15 43.55269 18.57511 34160 ft 395 kts 325°
2026-05-09 17:16 43.57700 18.55757 34496 ft 393 kts 325°
2026-05-09 17:17 43.74719 18.43434 36471 ft 396 kts 326°
2026-05-09 17:18 43.77121 18.41693 36761 ft 396 kts 326°
2026-05-09 17:18 43.79559 18.39923 37048 ft 396 kts 326°
2026-05-09 17:18 43.82000 18.38148 37333 ft 396 kts 326°
2026-05-09 17:18 43.84436 18.36376 37597 ft 396 kts 326°
2026-05-09 17:19 43.86875 18.34598 37871 ft 396 kts 326°
2026-05-09 17:19 43.89317 18.32818 38092 ft 398 kts 326°
2026-05-09 17:19 43.94232 18.29224 38110 ft 402 kts 326°
2026-05-09 17:20 43.99197 18.25573 38114 ft 409 kts 326°
2026-05-09 17:20 44.04231 18.21892 38115 ft 409 kts 326°
2026-05-09 17:21 44.09269 18.18207 38107 ft 409 kts 326°
2026-05-09 17:21 44.14300 18.14493 38102 ft 410 kts 326°
2026-05-09 17:22 44.19306 18.10797 38095 ft 410 kts 326°
2026-05-09 17:22 44.24349 18.07069 38098 ft 411 kts 326°
2026-05-09 17:23 44.29406 18.03323 38097 ft 411 kts 326°
2026-05-09 17:23 44.34457 17.99572 38124 ft 411 kts 326°
2026-05-09 17:25 44.49594 17.88308 38093 ft 412 kts 326°
2026-05-09 17:25 44.54639 17.84526 38085 ft 411 kts 326°
2026-05-09 17:26 44.59695 17.80739 38094 ft 413 kts 325°
2026-05-09 17:26 44.64760 17.76931 38084 ft 413 kts 325°
2026-05-09 17:27 44.69783 17.73142 38080 ft 413 kts 325°
2026-05-09 17:27 44.74847 17.69331 38074 ft 413 kts 325°
2026-05-09 17:28 44.79917 17.65518 38091 ft 414 kts 325°
2026-05-09 17:28 44.85004 17.61680 38079 ft 414 kts 325°
2026-05-09 17:29 44.90035 17.57858 38067 ft 414 kts 325°
2026-05-09 17:29 44.95107 17.53996 38065 ft 414 kts 325°
2026-05-09 17:30 45.00183 17.50129 38062 ft 414 kts 325°
2026-05-09 17:30 45.04394 17.46908 38083 ft 415 kts 325°
2026-05-09 17:31 45.10315 17.42386 38071 ft 416 kts 325°
2026-05-09 17:32 45.21392 17.36871 38052 ft 428 kts 337°
2026-05-09 17:32 45.23295 17.36136 38053 ft 428 kts 337°
2026-05-09 17:33 45.29050 17.33919 38073 ft 428 kts 337°
2026-05-09 17:33 45.35721 17.31312 38070 ft 428 kts 337°
2026-05-09 17:34 45.41462 17.29069 38065 ft 429 kts 337°
2026-05-09 17:35 45.60654 17.21541 38060 ft 429 kts 337°
2026-05-09 17:36 45.66375 17.19281 38073 ft 429 kts 337°
2026-05-09 17:36 45.72131 17.17006 38079 ft 429 kts 337°
2026-05-09 17:37 45.77879 17.14729 38063 ft 429 kts 337°
2026-05-09 17:37 45.83633 17.12448 38055 ft 430 kts 337°
2026-05-09 17:38 45.89399 17.10152 38084 ft 430 kts 338°
2026-05-09 17:39 45.98022 17.06715 38062 ft 431 kts 338°
2026-05-09 17:39 46.03796 17.04411 38066 ft 431 kts 338°
2026-05-09 17:40 46.09574 17.02102 38069 ft 431 kts 338°
2026-05-09 17:40 46.15359 16.99778 38069 ft 432 kts 338°
2026-05-09 17:41 46.21099 16.97286 37831 ft 420 kts 330°
2026-05-09 17:41 46.23599 16.95412 37547 ft 403 kts 321°
2026-05-09 17:41 46.25803 16.92982 37049 ft 396 kts 312°
2026-05-09 17:41 46.27655 16.90100 36535 ft 389 kts 306°
2026-05-09 17:42 46.29386 16.87103 36030 ft 388 kts 306°
2026-05-09 17:42 46.31120 16.84112 35541 ft 387 kts 306°
2026-05-09 17:42 46.32842 16.81144 35051 ft 385 kts 305°
2026-05-09 17:42 46.34564 16.78176 34592 ft 383 kts 305°
2026-05-09 17:43 46.36277 16.75223 34144 ft 385 kts 306°
2026-05-09 17:43 46.38008 16.72231 33615 ft 389 kts 306°
2026-05-09 17:43 46.39721 16.69271 33078 ft 391 kts 306°
2026-05-09 17:43 46.41472 16.66238 32539 ft 392 kts 306°
2026-05-09 17:44 46.43218 16.63214 31976 ft 392 kts 306°
2026-05-09 17:44 46.44971 16.60174 31427 ft 394 kts 306°
2026-05-09 17:44 46.46726 16.57121 30890 ft 395 kts 307°
2026-05-09 17:44 46.48490 16.54051 30354 ft 397 kts 307°
2026-05-09 17:45 46.50260 16.50969 29761 ft 397 kts 307°
2026-05-09 17:45 46.52000 16.47938 29156 ft 394 kts 307°
2026-05-09 17:45 46.53749 16.44887 28555 ft 393 kts 307°
2026-05-09 17:45 46.55498 16.41836 27960 ft 393 kts 307°
2026-05-09 17:46 46.57244 16.38790 27387 ft 392 kts 307°
2026-05-09 17:46 46.58986 16.35746 26815 ft 392 kts 307°
2026-05-09 17:46 46.60724 16.32701 26264 ft 392 kts 307°
2026-05-09 17:46 46.62464 16.29646 25716 ft 392 kts 307°
2026-05-09 17:47 46.64199 16.26595 25195 ft 392 kts 307°
2026-05-09 17:47 46.65936 16.23541 24665 ft 391 kts 308°
2026-05-09 17:47 46.67664 16.20500 24147 ft 390 kts 308°
2026-05-09 17:47 46.69392 16.17457 23634 ft 390 kts 308°
2026-05-09 17:48 46.71097 16.14451 23035 ft 388 kts 308°
2026-05-09 17:48 46.72829 16.11392 22443 ft 385 kts 308°
2026-05-09 17:48 46.74505 16.08429 21867 ft 381 kts 308°
2026-05-09 17:48 46.76181 16.05458 21301 ft 378 kts 308°
2026-05-09 17:49 46.77847 16.02505 20739 ft 375 kts 308°
2026-05-09 17:49 46.79504 15.99568 20187 ft 373 kts 308°
2026-05-09 17:49 46.81139 15.96667 19663 ft 370 kts 308°
2026-05-09 17:49 46.82771 15.93765 19131 ft 367 kts 308°
2026-05-09 17:50 46.84382 15.90901 18614 ft 365 kts 308°
2026-05-09 17:50 46.87557 15.85244 17480 ft 360 kts 308°
2026-05-09 17:50 46.89133 15.82430 16904 ft 357 kts 308°
2026-05-09 17:51 46.90698 15.79627 16332 ft 355 kts 307°
2026-05-09 17:51 46.92252 15.76835 15788 ft 353 kts 307°
2026-05-09 17:51 46.93808 15.74044 15228 ft 352 kts 307°
2026-05-09 17:51 46.95351 15.71283 14703 ft 350 kts 307°
2026-05-09 17:52 46.96889 15.68533 14177 ft 348 kts 307°
2026-05-09 17:52 46.98417 15.65797 13612 ft 346 kts 307°
2026-05-09 17:52 46.99935 15.63066 13081 ft 342 kts 307°
2026-05-09 17:52 47.01411 15.60407 12808 ft 331 kts 307°
2026-05-09 17:53 47.02849 15.57812 12362 ft 327 kts 307°
2026-05-09 17:53 47.04270 15.55246 12038 ft 319 kts 307°
2026-05-09 17:53 47.05656 15.52750 11691 ft 313 kts 307°
2026-05-09 17:53 47.07027 15.50277 11242 ft 312 kts 307°
2026-05-09 17:54 47.08371 15.47848 10914 ft 307 kts 307°
2026-05-09 17:54 47.09690 15.45468 10790 ft 296 kts 307°
2026-05-09 17:54 47.10969 15.43154 10592 ft 289 kts 307°
2026-05-09 17:54 47.12229 15.40869 10273 ft 288 kts 306°
2026-05-09 17:55 47.13480 15.38591 9969 ft 285 kts 307°
2026-05-09 17:55 47.14720 15.36339 9645 ft 282 kts 307°
2026-05-09 17:55 47.15951 15.34107 9290 ft 280 kts 308°
2026-05-09 17:55 47.17172 15.31889 8929 ft 279 kts 307°
2026-05-09 17:56 47.18386 15.29675 8609 ft 277 kts 307°
2026-05-09 17:56 47.19593 15.27468 8257 ft 277 kts 307°
2026-05-09 17:56 47.20797 15.25267 8039 ft 274 kts 308°
2026-05-09 17:57 47.23184 15.20941 8016 ft 264 kts 311°
2026-05-09 17:57 47.24551 15.19196 8014 ft 263 kts 325°
2026-05-09 17:57 47.26134 15.17957 8035 ft 257 kts 334°
2026-05-09 17:57 47.27757 15.16889 8012 ft 250 kts 334°
2026-05-09 17:58 47.29300 15.15816 8009 ft 238 kts 325°
2026-05-09 17:58 47.30388 15.14131 8026 ft 224 kts 294°
2026-05-09 17:58 47.30721 15.11963 7872 ft 217 kts 264°
2026-05-09 17:58 47.30295 15.09883 7692 ft 213 kts 245°
2026-05-09 17:59 47.29674 15.07901 7511 ft 211 kts 246°
2026-05-09 17:59 47.29069 15.05945 7337 ft 208 kts 245°
2026-05-09 17:59 47.28472 15.04013 7162 ft 206 kts 245°
2026-05-09 17:59 47.27877 15.02087 6982 ft 206 kts 245°
2026-05-09 18:00 47.27275 15.00131 6622 ft 213 kts 245°
2026-05-09 18:00 47.26663 14.98147 6234 ft 218 kts 245°
2026-05-09 18:00 47.26028 14.96083 5850 ft 219 kts 245°
2026-05-09 18:00 47.25407 14.94062 5483 ft 219 kts 245°
2026-05-09 18:01 47.24782 14.92022 5119 ft 219 kts 244°
2026-05-09 18:01 47.24160 14.89993 4740 ft 213 kts 245°
2026-05-09 18:01 47.23566 14.88056 4365 ft 203 kts 245°
2026-05-09 18:01 47.22999 14.86213 4095 ft 191 kts 245°
2026-05-09 18:02 47.22475 14.84518 3947 ft 177 kts 245°
2026-05-09 18:02 47.21883 14.82949 3683 ft 176 kts 232°
2026-05-09 18:02 47.21097 14.81592 3434 ft 171 kts 226°
2026-05-09 18:02 47.20286 14.80295 3333 ft 171 kts 227°
2026-05-09 18:03 47.19477 14.78998 3374 ft 173 kts 227°
2026-05-09 18:03 47.18679 14.77667 3419 ft 175 kts 232°
2026-05-09 18:03 47.18000 14.76197 3424 ft 173 kts 239°
2026-05-09 18:03 47.17541 14.74669 3370 ft 163 kts 256°
2026-05-09 18:04 47.17279 14.73002 3340 ft 168 kts 259°
2026-05-09 18:04 47.17083 14.71345 3248 ft 162 kts 263°
2026-05-09 18:04 47.17188 14.69735 3107 ft 160 kts 295°
2026-05-09 18:04 47.17954 14.68770 3000 ft 142 kts 350°
2026-05-09 18:05 47.18906 14.69095 3045 ft 149 kts 37°
2026-05-09 18:05 47.19588 14.70214 2750 ft 147 kts 61°
2026-05-09 18:05 47.19911 14.71618 2474 ft 145 kts 76°
2026-05-09 18:05 47.20108 14.73057 2301 ft 143 kts 79°
2026-05-09 18:06 47.20261 14.74388 2235 ft 116 kts 80°
2026-05-09 18:06 47.20361 14.75255 2221 ft 56 kts 81°
2026-05-09 18:06 47.20394 14.75555 2214 ft 20 kts 82°
2026-05-09 18:06 47.20348 14.75725 2210 ft 18 kts 165°
2026-05-09 18:07 47.20290 14.75738 2210 ft 1 kts 171°
2026-05-09 18:07 47.20289 14.75738 2210 ft 0 kts 171°
2026-05-09 18:07 47.20256 14.75731 2211 ft 7 kts 212°
2026-05-09 18:07 47.20238 14.75681 2212 ft 4 kts 253°
2026-05-09 18:08 47.20223 14.75640 2213 ft 5 kts 227°
2026-05-09 18:08 47.20188 14.75628 2212 ft 6 kts 176°
2026-05-09 18:08 47.20138 14.75638 2212 ft 7 kts 171°
2026-05-09 18:08 47.20100 14.75649 2212 ft 0 kts 159°
2026-05-09 18:09 47.20100 14.75650 2212 ft 1 kts 159°
2026-05-09 18:09 47.20091 14.75664 2210 ft 3 kts 124°
2026-05-09 18:09 47.20078 14.75697 2211 ft 4 kts 119°
2026-05-09 18:10 47.20062 14.75722 2211 ft 2 kts 141°
2026-05-09 18:10 47.20057 14.75727 2211 ft 0 kts 148°